This demonstration page uses our WeatherBlox Daily Observations layout. Learn more.

Left ArrowRight Arrow

38.83388, -104.82136

Hourly Observations for May 24, 2022

Temp ( °F °C ) Dew Point ( °F °C ) Humidity (%) Winds ( mph kmh ) Pressure ( in mb ) Visibility ( mi km ) Precip ( " mm )
12:13 am 00:13 Cloudy with Light Rain 41 5 37 3 87 87 NW 12 19 29.64 1004 10 16 0.00 0.00
12:43 am 00:43 Cloudy with Light Rain 41 5 39 4 93 93 NW 12 19 29.62 1003 9 14 0.00 0.00
12:54 am 00:54 Cloudy 39 4 37 3 93 93 NW 5 7 29.65 1004 5 8 0.00 0.00
12:58 am 00:58 Cloudy 37 2.9 36 2.2 95 95 NW 6 9 29.66 1004 3 5 0.07 1.78
1:13 am 01:13 Cloudy 37 3 37 3 100 100 WNW 9 15 29.65 1004 10 16 0.00 0.00
1:14 am 01:14 Cloudy with Light Rain 37 3 37 3 100 100 WNW 5 7 29.65 1004 10 16 0.00 0.00
1:19 am 01:19 Cloudy with Light Rain 37 3 37 3 100 100 NW 5 7 29.63 1003 10 16 0.00 0.00
1:22 am 01:22 Cloudy 37 3 37 3 100 100 NW 7 11 29.64 1004 8 13 0.00 0.00
1:32 am 01:32 Cloudy with Rain 39 4 37 3 93 93 NW 12 19 29.62 1003 9 14 0.00 0.00
1:58 am 01:58 Cloudy with Rain 38 3.3 35 1.5 88 88 NW 13 20 29.71 1006 8 13 0.09 2.29
2:23 am 02:23 Cloudy 37 3 34 1 87 87 NW 15 24 29.71 1006 5 8 0.00 0.00
2:30 am 02:30 Cloudy with Light Snow 37 3 34 1 87 87 NW 15 24 29.70 1006 6 10 0.00 0.00
2:45 am 02:45 Windy with Snow Likely 37 3 34 1 87 87 NW 22 35 29.72 1007 7 11 0.00 0.00
2:48 am 02:48 Cloudy 37 3 34 1 87 87 NW 21 33 29.70 1006 8 13 0.00 0.00
2:53 am 02:53 Cloudy with Light Rain 37 3 34 1 87 87 NW 18 30 29.72 1007 9 14 0.00 0.00
2:58 am 02:58 Cloudy with Light Rain 38 3.4 33 0.8 83 83 WNW 18 30 29.73 1007 10 16 0.06 1.52
3:01 am 03:01 Cloudy 39 4 32 0 75 75 WNW 20 31 29.71 1006 10 16 0.00 0.00
3:58 am 03:58 Cloudy 41 5 29 -1.9 61 61 NW 18 30 29.75 1008 10 16 0.00 0.00
4:58 am 04:58 Cloudy 42 5.4 28 -2.4 58 58 NW 16 26 29.75 1008 10 16 0.00 0.00
5:58 am 05:58 Cloudy 41 4.8 30 -1.2 65 65 NW 16 26 29.69 1005 10 16 0.00 0.00
6:58 am 06:58 Cloudy 42 5.3 30 -1.2 63 63 NW 15 24 29.69 1005 10 16 0.00 0.00
7:58 am 07:58 Cloudy 42 5.3 30 -1 64 64 NW 8 13 29.69 1005 10 16 0.00 0.00
8:58 am 08:58 Cloudy 41 5.1 30 -0.9 66 66 N 7 11 29.68 1005 10 16 0.00 0.00
9:00 am 09:00 Cloudy with Light Rain 41 5 30 -1 66 66 N 12 19 29.68 1005 10 16 0.00 0.00
9:15 am 09:15 Cloudy with Drizzle 39 4 32 0 75 75 N 10 17 29.65 1004 10 16 0.00 0.00
9:58 am 09:58 Cloudy with Light Rain 40 4.3 33 0.3 75 75 NW 10 17 29.65 1004 10 16 0.00 0.00
10:58 am 10:58 Cloudy with Light Rain 41 4.9 33 0.7 75 75 NW 12 19 29.68 1005 10 16 0.00 0.00
11:32 am 11:32 Cloudy 43 6 32 0 66 66 NNW 10 17 29.69 1005 10 16 0.00 0.00
11:58 am 11:58 Mostly Cloudy 45 7.4 30 -1.3 54 54 NNE 8 13 29.74 1007 10 16 0.00 0.00
12:58 pm 12:58 Mostly Cloudy 48 9 29 -1.4 48 48 N 10 17 29.77 1008 10 16 0.00 0.00
1:03 pm 13:03 Mostly Cloudy 48 9 30 -1 50 50 NW 12 19 29.76 1008 10 16 0.00 0.00
1:58 pm 13:58 Cloudy 48 8.9 27 -3 43 43 NNW 7 11 29.73 1007 10 16 0.00 0.00
2:58 pm 14:58 Mostly Cloudy 49 9.4 29 -1.9 45 45 E 7 11 29.73 1007 10 16 0.00 0.00
3:58 pm 15:58 Cloudy 48 8.8 36 2.4 64 64 SE 13 20 29.67 1005 10 16 0.00 0.00
4:55 pm 16:55 Cloudy with Light Rain 45 7 36 2 71 71 SSE 7 11 29.62 1003 10 16 0.00 0.00
4:58 pm 16:58 Cloudy with Light Rain 45 7.1 36 2.2 71 71 SSE 6 9 29.62 1003 10 16 0.00 0.00
5:17 pm 17:17 Cloudy 45 7 36 2 71 71 S 10 17 29.62 1003 10 16 0.00 0.00
5:58 pm 17:58 Cloudy 43 6.1 38 3.4 83 83 SSE 12 19 29.62 1003 10 16 0.00 0.00
6:38 pm 18:38 Mostly Cloudy 43 6 41 5 93 93 SSE 9 15 29.62 1003 10 16 0.00 0.00
6:43 pm 18:43 Mostly Cloudy 43 6 41 5 93 93 SSE 9 15 29.62 1003 10 16 0.00 0.00
6:58 pm 18:58 Cloudy 42 5.4 42 5.3 99 99 SSE 9 15 29.64 1004 10 16 0.00 0.00
7:37 pm 19:37 Cloudy with Light Rain 41 5 41 5 100 100 SSE 8 13 29.64 1004 10 16 0.00 0.00
7:58 pm 19:58 Cloudy with Light Rain 41 4.8 41 4.8 100 100 S 8 13 29.65 1004 10 16 0.00 0.00
8:08 pm 20:08 Cloudy with Rain 41 5 41 5 100 100 SSW 6 9 29.65 1004 9 14 0.00 0.00
8:13 pm 20:13 Cloudy with Rain 39 4 39 4 100 100 Calm 29.67 1005 8 13 0.00 0.00
8:18 pm 20:18 Cloudy with Rain 39 4 39 4 100 100 NNW 9 15 29.65 1004 7 11 0.00 0.00
8:24 pm 20:24 Cloudy with Light Snow 37 3 36 2 93 93 NW 8 13 29.63 1004 4 6 0.00 0.00
8:39 pm 20:39 Cloudy with Light Snow 37 3 37 3 100 100 W 6 9 29.63 1004 3 4 0.00 0.00
8:47 pm 20:47 Cloudy 39 4 36 2 87 87 WNW 3 6 29.64 1004 7 11 0.00 0.00
8:55 pm 20:55 Cloudy with Light Rain 39 4 37 3 93 93 Calm 29.65 1004 10 16 0.00 0.00
8:58 pm 20:58 Cloudy with Light Rain 40 4.4 37 2.7 89 89 Calm 29.65 1004 10 16 0.26 6.60
9:03 pm 21:03 Cloudy with Light Rain 39 4 36 2 87 87 WNW 7 11 29.67 1005 10 16 0.00 0.00
9:12 pm 21:12 Cloudy 41 5 36 2 81 81 Calm 29.68 1005 10 16 0.00 0.00
9:40 pm 21:40 Cloudy with Light Rain 39 4 37 3 93 93 NNW 8 13 29.71 1006 10 16 0.00 0.00
9:58 pm 21:58 Cloudy with Light Rain 41 4.9 36 2.3 83 83 NW 8 13 29.70 1006 10 16 0.01 0.25
10:29 pm 22:29 Cloudy 41 5 36 2 81 81 NW 8 13 29.71 1006 10 16 0.00 0.00
10:58 pm 22:58 Cloudy 41 4.8 36 2 82 82 NW 6 9 29.69 1005 10 16 0.00 0.00
11:13 pm 23:13 Cloudy 41 5 36 2 81 81 NW 10 17 29.70 1006 10 16 0.00 0.00
11:48 pm 23:48 Partly Cloudy 39 4 36 2 87 87 NW 8 13 29.65 1004 10 16 0.00 0.00
11:58 pm 23:58 Mostly Clear 40 4.4 35 1.4 81 81 NNW 8 13 29.64 1004 10 16 0.00 0.00

Powered by AerisWeather